リニア彗星

C/2001 C1 ( LINEAR )

English version
Home page
Updated on July 29, 2002

---------------------------------------------------------------------

・ プロフィール

発見日 2001年2月1日
発見光度 18.9等
発見者 Lincoln Laboratory Near-Earth Asteroid Research project

・ 軌道要素

Epoch 2002 Mar. 27.0 TT = JDT 2452360.5
T 2002 Mar. 28.2977 TT                                  MPCN
q   5.104599             (2000.0)            P               Q
z  +0.000021       Peri.  219.9370      -0.5098576      +0.6868364
 +/-0.000003       Node    33.7113      -0.3280849      +0.4013601
e   0.999893       Incl.   68.9519      -0.7952393      -0.6059421
From 201 observations 2000 Apr. 29-2002 June 3, mean residual 0".7.

・ 星図

・ 光度変化

        m1 = 5.5 + 5 logΔ + 10.0 log r

---------------------------------------------------------------------

軌道要素はMPCのEphemerides and Orbital Elementsに掲載されたものです。
星図は StellaNavigator Ver.2.0 for Windows (アストロアーツ 編著 / アスキー出版局刊) で作成したものです。
光度グラフはComet for Windowsで作成したものです。

---------------------------------------------------------------------

Copyright(C) Seiichi Yoshida (comet@aerith.net). All rights reserved.